Powrót do katalogu

STARLINK-35855

AktywnyŁącznośćVLEO
NORAD 66891·PAYLOAD·🇺🇸 United States

Wystrzelony Dec 4, 2025 z Vandenberg Space Force Base

Loading…

Następne Przeloty (najbliższe 24 godziny)

TLE

ŚwieżeSource: CelesTrak SupGP

Epoka: Sep 15, 2026, 04:20 UTC

1 66891C 25283P   26258.18104167 -.00054583  00000+0 -16129-2 0  2586
2 66891  53.1573 220.7760 0001395  88.4880 198.3684 15.34412259    10

Śledź STARLINK-35855 w czasie rzeczywistym z AllMySat

Download on the App Store